EW2974 Weather Reports


Display with metric or nautical units.
time (UTC)temp
F
wind
direction
speed
MPH
gust
MPH
rain 1hr
in
rain 24hr
in
rain mn
in
humidity
%
barometer
mb
20260504005904 54 212 0.0 0.0 0.00 0.00 0.00 48 1011.2
20260504005405 55 212 0.0 0.0 0.00 0.00 0.00 48 1011.2
20260504004904 55 207 2.0 9.0 0.00 0.00 0.00 47 1011.2
20260504003404 56 211 0.0 0.0 0.00 0.00 0.00 47 1011.1
20260504002904 56 210 1.0 5.0 0.00 0.00 0.00 46 1011.1
20260504001905 56 214 0.0 5.0 0.00 0.00 0.00 46 1011.2
20260504001404 57 246 1.0 8.0 0.00 0.00 0.00 45 1011.1
20260504000905 57 278 3.0 6.0 0.00 0.00 0.00 44 1011.1
20260504000404 57 259 2.0 6.0 0.00 0.00 0.00 44 1011.3
20260503235904 57 214 3.0 14.0 0.00 0.00 0.00 44 1011.3
20260503235404 57 230 2.0 9.0 0.00 0.00 0.00 43 1011.3
20260503234904 57 239 1.0 6.0 0.00 0.00 0.00 44 1011.3
20260503234404 57 245 2.0 6.0 0.00 0.00 0.00 43 1011.3
20260503233905 57 253 0.0 5.0 0.00 0.00 0.00 44 1011.4
20260503233404 57 271 2.0 6.0 0.00 0.00 0.00 43 1011.4
20260503232905 58 265 0.0 0.0 0.00 0.00 0.00 44 1011.3
20260503231905 58 254 1.0 5.0 0.00 0.00 0.00 43 1011.3
20260503231404 58 251 2.0 8.0 0.00 0.00 0.00 43 1011.3
20260503230905 58 233 0.0 3.0 0.00 0.00 0.00 44 1011.3
20260503230404 58 260 0.0 0.0 0.00 0.00 0.00 45 1011.6
20260503225904 58 262 1.0 5.0 0.00 0.00 0.00 43 1011.6
20260503225404 58 289 2.0 6.0 0.00 0.00 0.00 43 1011.7
20260503224904 58 262 1.0 6.0 0.00 0.00 0.00 43 1011.6
20260503224405 58 273 1.0 16.0 0.00 0.00 0.00 43 1011.7
20260503223904 59 267 3.0 12.0 0.00 0.00 0.00 43 1011.7
20260503223404 59 258 6.0 18.0 0.00 0.00 0.00 41 1011.7
20260503222904 59 235 7.0 16.0 0.00 0.00 0.00 41 1011.7
20260503222404 59 265 7.0 16.0 0.00 0.00 0.00 42 1011.7
20260503221904 59 269 3.0 14.0 0.00 0.00 0.00 43 1011.7
20260503221404 59 268 2.0 9.0 0.00 0.00 0.00 42 1011.7
20260503220904 59 268 2.0 12.0 0.00 0.00 0.00 42 1011.7
20260503220404 59 227 6.0 17.0 0.00 0.00 0.00 42 1011.8
20260503215904 59 227 6.0 13.0 0.00 0.00 0.00 42 1011.7
20260503215404 59 281 1.0 17.0 0.00 0.00 0.00 41 1011.8
20260503214904 59 252 6.0 16.0 0.00 0.00 0.00 41 1011.8
20260503214404 59 261 2.0 6.0 0.00 0.00 0.00 42 1011.8
20260503213905 59 267 4.0 14.0 0.00 0.00 0.00 42 1011.9
20260503213404 60 266 2.0 9.0 0.00 0.00 0.00 42 1011.7
20260503212905 60 220 2.0 14.0 0.00 0.00 0.00 41 1011.6
20260503212404 60 209 2.0 12.0 0.00 0.00 0.00 44 1011.7
20260503211904 60 253 3.0 14.0 0.00 0.00 0.00 39 1011.7
20260503211404 60 245 6.0 14.0 0.00 0.00 0.00 40 1011.7
20260503210404 60 272 3.0 9.0 0.00 0.00 0.00 39 1011.5
20260503205904 60 263 1.0 21.0 0.00 0.00 0.00 41 1011.5
20260503205404 61 295 3.0 21.0 0.00 0.00 0.00 39 1011.6
20260503204904 61 203 7.0 21.0 0.00 0.00 0.00 39 1011.6
20260503204404 60 254 2.0 18.0 0.00 0.00 0.00 39 1011.8
20260503203904 60 266 6.0 18.0 0.00 0.00 0.00 40 1011.7
20260503202904 60 236 3.0 17.0 0.00 0.00 0.00 39 1011.9
20260503202404 60 241 5.0 9.0 0.00 0.00 0.00 39 1011.9
20260503201904 60 248 8.0 18.0 0.00 0.00 0.00 39 1011.9
20260503201404 60 274 2.0 16.0 0.00 0.00 0.00 41 1012.0
20260503200404 60 269 2.0 16.0 0.00 0.00 0.00 40 1012.2
20260503195904 60 235 8.0 21.0 0.00 0.00 0.00 38 1012.3
20260503195404 61 272 7.0 18.0 0.00 0.00 0.00 36 1012.3
20260503194905 62 228 12.0 22.0 0.00 0.00 0.00 36 1012.4
20260503194404 62 248 5.0 8.0 0.00 0.00 0.00 36 1012.3
20260503193904 61 259 4.0 13.0 0.00 0.00 0.00 36 1012.4
20260503193404 62 259 5.0 14.0 0.00 0.00 0.00 36 1012.5
20260503192904 62 238 5.0 16.0 0.00 0.00 0.00 37 1012.7
20260503191404 61 273 8.0 18.0 0.00 0.00 0.00 37 1012.9
20260503190904 60 259 6.0 14.0 0.00 0.00 0.00 37 1013.0
20260503190404 60 261 2.0 8.0 0.00 0.00 0.00 39 1013.0
20260503185404 59 240 7.0 12.0 0.00 0.00 0.00 37 1013.3
20260503184905 59 268 4.0 22.0 0.00 0.00 0.00 39 1013.4
20260503184405 59 242 5.0 14.0 0.00 0.00 0.00 38 1013.3
20260503183904 59 247 5.0 14.0 0.00 0.00 0.00 39 1013.4
20260503183405 60 281 6.0 22.0 0.00 0.00 0.00 37 1013.4
20260503182904 61 244 9.0 21.0 0.00 0.00 0.00 41 1013.2
20260503181904 60 124 5.0 18.0 0.00 0.00 0.00 42 1013.4
20260503181404 59 243 6.0 12.0 0.00 0.00 0.00 42 1013.6
20260503180404 60 228 10.0 23.0 0.00 0.00 0.00 40 1013.6
20260503175904 60 214 5.0 22.0 0.00 0.00 0.00 42 1013.6
20260503175404 60 247 5.0 12.0 0.00 0.00 0.00 43 1013.7
20260503174904 60 250 5.0 18.0 0.00 0.00 0.00 41 1013.9
20260503174404 60 196 3.0 6.0 0.00 0.00 0.00 42 1013.8
20260503173904 60 271 7.0 14.0 0.00 0.00 0.00 41 1013.8
20260503172904 59 252 9.0 16.0 0.00 0.00 0.00 39 1014.2
20260503172404 60 247 6.0 12.0 0.00 0.00 0.00 40 1014.2
20260503171904 60 242 4.0 17.0 0.00 0.00 0.00 42 1014.2
20260503171404 59 254 6.0 18.0 0.00 0.00 0.00 43 1014.4
20260503170404 58 260 5.0 16.0 0.00 0.00 0.00 43 1014.5
20260503150904 53 261 7.0 12.0 0.00 0.00 0.00 43 1015.5
20260503150404 53 241 5.0 14.0 0.00 0.00 0.00 42 1015.5
20260503131404 45 251 8.0 12.0 0.00 0.00 0.00 60 1016.2
20260503130904 45 259 0.0 1.0 0.00 0.00 0.00 63 1016.2
20260503130404 44 256 6.0 13.0 0.00 0.01 0.00 63 1016.2
20260503110404 33 212 0.0 0.0 0.00 0.03 0.00 93 1015.9
20260503090404 32 212 0.0 0.0 0.00 0.13 0.00 92 1015.6
20260503081404 33 212 0.0 0.0 0.00 0.14 0.00 91 1015.6
20260503080904 33 212 0.0 0.0 0.00 0.14 0.00 91 1015.6
20260503080404 33 212 0.0 0.0 0.00 0.14 0.00 91 1015.7
20260503072904 34 212 0.0 0.0 0.00 0.14 0.00 90 1015.6
20260503072404 34 212 0.0 0.0 0.00 0.14 0.00 90 1015.5
20260503071404 34 212 0.0 0.0 0.00 0.15 0.00 90 1015.5
20260503070904 34 212 0.0 0.0 0.00 0.15 0.00 89 1015.5
20260503070404 34 212 0.0 0.0 0.00 0.15 0.00 89 1015.6
20260503054904 37 212 0.0 0.0 0.00 0.15 0.00 86 1015.7
20260503054404 37 212 0.0 0.0 0.00 0.15 0.00 85 1015.7
20260503053404 38 212 0.0 0.0 0.00 0.15 0.00 85 1015.8
20260503052405 38 212 0.0 0.0 0.00 0.15 0.00 85 1015.8
20260503051905 38 212 0.0 0.0 0.00 0.15 0.00 85 1015.8
20260503051405 38 212 0.0 0.0 0.00 0.15 0.00 85 1015.8
20260503050905 38 212 0.0 0.0 0.00 0.15 0.00 84 1015.9
20260503050405 38 212 0.0 0.0 0.00 0.15 0.00 84 1016.0
20260503045906 38 212 0.0 0.0 0.00 0.15 0.00 84 1016.0
20260503045405 38 212 0.0 0.0 0.00 0.15 0.00 84 1016.0
20260503044906 38 212 0.0 0.0 0.00 0.15 0.00 84 1016.1
20260503043905 38 212 0.0 0.0 0.00 0.15 0.00 83 1016.0
20260503043405 38 212 0.0 0.0 0.00 0.15 0.00 84 1016.1
20260503042905 38 212 0.0 0.0 0.00 0.15 0.00 85 1016.1
20260503042405 38 212 0.0 0.0 0.00 0.15 0.00 84 1016.1
20260503041906 38 212 0.0 0.0 0.00 0.15 0.00 84 1016.1
20260503041405 38 212 0.0 0.0 0.00 0.15 0.00 84 1016.2
20260503040405 38 212 0.0 0.0 0.00 0.15 0.00 84 1016.2
20260503035405 38 212 0.0 0.0 0.00 0.15 0.15 85 1016.2
20260503034905 38 212 0.0 0.0 0.00 0.15 0.15 85 1016.2
20260503034405 38 212 0.0 0.0 0.00 0.15 0.15 85 1016.3
20260503033905 38 212 0.0 0.0 0.00 0.15 0.15 85 1016.3
20260503033406 39 212 0.0 0.0 0.00 0.15 0.15 85 1016.3
20260503032905 39 212 0.0 0.0 0.00 0.15 0.15 85 1016.3
20260503032406 39 212 0.0 0.0 0.00 0.15 0.15 85 1016.3
20260503031905 39 212 0.0 0.0 0.00 0.15 0.15 84 1016.3
20260503031406 39 212 0.0 0.0 0.00 0.15 0.15 84 1016.3
20260503030405 39 212 0.0 0.0 0.00 0.15 0.15 84 1016.4
20260503025407 39 212 0.0 0.0 0.00 0.15 0.15 83 1016.5
20260503024906 39 212 0.0 0.0 0.00 0.15 0.15 83 1016.5
20260503024405 39 212 0.0 0.0 0.00 0.15 0.15 82 1016.6
20260503023905 39 212 0.0 0.0 0.00 0.15 0.15 82 1016.7
20260503023405 39 212 0.0 0.0 0.00 0.15 0.15 81 1016.7
20260503022905 39 212 0.0 0.0 0.00 0.15 0.15 81 1016.7
20260503022405 39 212 0.0 0.0 0.00 0.15 0.15 80 1016.7
20260503021905 39 212 0.0 0.0 0.00 0.15 0.15 80 1016.7
20260503021405 39 212 0.0 0.0 0.00 0.15 0.15 80 1016.7
20260503020905 39 212 0.0 0.0 0.00 0.15 0.15 79 1016.7
20260503020406 39 212 0.0 0.0 0.00 0.15 0.15 78 1016.7
20260503015905 39 212 0.0 0.0 0.00 0.15 0.15 78 1016.7
20260503015406 39 212 0.0 0.0 0.00 0.15 0.15 77 1016.8
20260503014905 39 212 0.0 0.0 0.00 0.15 0.15 76 1016.8
20260503014406 39 212 0.0 0.0 0.00 0.15 0.15 75 1016.7
20260503013905 39 212 0.0 0.0 0.00 0.15 0.15 75 1016.7
20260503013405 39 212 0.0 0.0 0.00 0.15 0.15 74 1016.7
20260503012406 39 212 0.0 0.0 0.00 0.15 0.15 71 1016.7
20260503011905 40 212 0.0 0.0 0.00 0.15 0.15 72 1016.6
20260503011405 40 212 0.0 0.0 0.00 0.15 0.15 72 1016.7
20260503010905 40 212 0.0 0.0 0.00 0.15 0.15 73 1016.6
20260503010406 40 212 0.0 0.0 0.00 0.15 0.15 72 1016.6